Regional Weather Roundup
Issued by NWS

Home | Current Version | Previous Version | Graphics & Text | Print | Product List | Glossary On
Versions: 1 2 3 4 5 6 7 8 9 10 11 12 13 14 15 16 17 18 19 20 21 22 23 24 25 26 27 28 29 30 31 32 33 34 35 36 37 38 39 40 41 42 43 44 45 46 47 48 49 50
000
ASUS43 KMPX 201301
RWRMN
WEATHER ROUNDUP FOR MINNESOTA
NATIONAL WEATHER SERVICE TWIN CITIES/CHANHASSEN MN
800 AM CDT FRI OCT 20 2017


NOTE: "FAIR" INDICATES FEW OR NO CLOUDS BELOW 12,000 FEET WITH NO
SIGNIFICANT WEATHER AND/OR OBSTRUCTIONS TO VISIBILITY. N/A MEANS
CURRENT SKY AND/OR WEATHER CONDITIONS ARE NOT AVAILABLE.

MNZ060>063-068>070-201400-
   Twin Cities Metro

CITY           SKY/WX    TMP DP  RH WIND       PRES   REMARKS
TWIN CITIES    CLEAR     54  50  86 SE8       29.90R
ST PAUL        CLEAR     52  50  93 SE6       29.91S
CRYSTAL        CLEAR     56  47  71 S8        29.87S
BLAINE         PTCLDY    55  50  82 S8        29.87F
LAKEVILLE      CLEAR     52  48  87 S5        29.91R
EDEN PRAIRIE   CLEAR     58  50  75 S12       29.88S
SOUTH ST PAUL  CLEAR     53  48  84 S3        29.91R
LAKE ELMO      FAIR      54  50  87 S8        29.91S
$$
MNZ001>005-007-008-013>017-022>024-027-028-201400-
   Northwest Minnesota

CITY           SKY/WX    TMP DP  RH WIND       PRES   REMARKS
BEMIDJI        CLEAR     47  44  91 SE3       29.71S
HALLOCK        CLEAR     48  45  87 SE10      29.58F
ROSEAU         CLOUDY    50  45  81 SE7       29.64S
WARROAD        CLEAR     50  46  87 S7        29.66S
CROOKSTON      CLEAR     52  46  82 SE10      29.61F
FOSSTON        CLEAR     57  46  67 S10       29.66F
DETROIT LAKES  CLEAR     54  48  82 S9        29.69F
MOORHEAD       CLEAR     55  48  76 SE16      29.63F
PARK RAPIDS    CLEAR     49  46  90 SE7       29.73S
MAHNOMEN       FAIR      59  47  65 S12       29.65F
$$
MNZ006-009>011-018-025>026-201400-
   North Central Minnesota

CITY           SKY/WX    TMP DP  RH WIND       PRES   REMARKS
BAUDETTE       CLEAR     45  42  89 SE7       29.69F
FLAG ISLAND    CLEAR     52  45  76 SE9       29.65F
INTL FALLS     CLEAR     43  39  86 SE6       29.74F
WASKISH        CLEAR     52  46  82 SE7       29.70S
BIG FORK       CLEAR     50  45  81 SE3       29.75F
LONGVILLE      CLEAR     46  45  93 SE5       29.76S
GRAND RAPIDS   CLEAR     50  45  83 S12       29.80S
CRANE LAKE     CLEAR     48  43  81 S3        29.80S
ORR            CLEAR     48  39  71 E3        29.76S
COOK           CLEAR     52  43  71 SE5       29.79F
WALKER         FAIR      52  46  80 SE7       29.73S
$$
MNZ012-019>021-037-201400-
   Northeast Minnesota

CITY           SKY/WX    TMP DP  RH WIND       PRES   REMARKS
DULUTH         CLEAR     52  48  86 S8        29.85S
ELY            CLEAR     50  43  76 S7        29.83S
HIBBING        CLEAR     35  34  96 CALM      29.81F
EVELETH        CLEAR     35  35 100 CALM      29.83F
DULUTH HARBOR  CLEAR     48  46  93 CALM      29.86S
TWO HARBORS    CLEAR     41  36  81 CALM      29.85S
SILVER BAY     CLEAR     36  34  93 CALM      29.85S
GRAND MARAIS     N/A     42  40  92 CALM      29.87S
G MARAIS ARPRT CLEAR     37  30  75 S3        29.88S
$$
MNZ029>031-032-039>041-046>048-054>057-064-201400-
   West Central Minnesota

CITY           SKY/WX    TMP DP  RH WIND       PRES   REMARKS
FERGUS FALLS   CLOUDY    55  48  76 S12       29.71S
WHEATON        PTCLDY    54  46  76 SE16      29.69F
MORRIS         PTCLDY    52  48  87 SE9       29.73S
ALEXANDRIA     CLEAR     56  48  74 S10       29.77S
ELBOW LAKE     FAIR      54  48  82 SE15      29.72S
WADENA         CLEAR     54  46  76 S9        29.73S
GLENWOOD       CLEAR     54  48  82 S12       29.78S
APPLETON       CLEAR     55  46  71 SE7       29.74S
BENSON         CLEAR     54  48  82 S10       29.77F
ORTONVILLE     PTCLDY    52  48  87 N8        29.71F
MADISON        PTCLDY    63  48  59 S14       29.74S
WILLMAR        FAIR      55  48  76 S7        29.81S
$$
MNZ033>034-036-042>043-049>051-058-059-201400-
   Central Minnesota

CITY           SKY/WX    TMP DP  RH WIND       PRES   REMARKS
ST CLOUD       CLEAR     49  48  97 SE9       29.83S
SAUK CENTRE    FAIR      50  47  89 SE9       29.79S
PAYNESVILLE    CLEAR     55  49  79 S14       29.81F
AITKIN         CLEAR     52  46  82 S9        29.79S
PINE RIVER     CLEAR     46  43  87 SE6       29.80F
BRAINERD       CLEAR     53  48  83 S13       29.79F
STAPLES        CLEAR     52  46  82 S9        29.76S
LONG PRAIRIE   FAIR      50  46  87 SE9       29.78F
LITTLE FALLS   CLEAR     50  43  76 SE6       29.80S
LITCHFIELD     CLEAR     54  50  87 SE5       29.83S
BUFFALO        CLEAR     56  48  75 S6        29.86S
MAPLE LAKE     CLEAR     54  50  87 S7        29.85S
HUTCHINSON     CLEAR     54  50  86 S7        29.85F
$$
MNZ037-044-045-052-053-201400-
   East Central Minnesota

CITY           SKY/WX    TMP DP  RH WIND       PRES   REMARKS
PRINCETON      CLEAR     54  48  82 SE6       29.85S
MORA           CLEAR     50  46  87 SE5       29.87R
CAMBRIDGE      CLEAR     55  46  71 SE7       29.86S
RUSH CITY      PTCLDY    52  48  86 S6        29.87S
MOOSE LAKE     CLEAR     52  46  82 S5        29.83S
HINCKLEY       FAIR      52  48  87 S3        29.86S
CLOQUET        CLEAR     52  46  82 S5        29.84S
MCGREGOR       CLEAR     50  46  87 S8        29.82S
$$
MNZ071>073-080-081-089-090-097-098-201400-
   Southwest Minnesota

CITY           SKY/WX    TMP DP  RH WIND       PRES   REMARKS
MONTEVIDEO     CLOUDY    55  48  76 S7        29.77S
GRANITE FALLS  CLEAR     56  49  78 S9        29.81S
CANBY          MOCLDY    61  48  62 SW15G22   29.76S
MARSHALL       CLOUDY    58  48  69 S18G25    29.78F
REDWOOD FALLS  CLEAR     58  47  66 S15       29.82F
OLIVIA         CLEAR     54  48  82 S10       29.81F
PIPESTONE      CLOUDY    52  46  82 S12       29.82S
WORTHINGTON    CLOUDY    56  49  77 S14G20    29.87F
JACKSON        CLOUDY    54  46  76 S13       29.90S
TRACY          CLEAR     58  50  74 S16G23    29.82F
SLAYTON        CLOUDY    56  48  74 S15G25    29.85S
$$
MNZ065>067-074>077-082>085-091>093-201400-
   South Central Minnesota

CITY           SKY/WX    TMP DP  RH WIND       PRES   REMARKS
MANKATO        CLEAR     56  49  77 S9        29.91S
NEW ULM        CLEAR     54  46  76 S13       29.87S
ST JAMES       CLEAR     54  48  82 S14G20    29.89S
FAIRMONT       CLEAR     53  49  86 S13       29.92S
GLENCOE        CLEAR     56  49  80 S8        29.86S
FARIBAULT      CLEAR     54  48  82 S8        29.93S
OWATONNA       CLEAR     54  48  82 S14       29.94S
WASECA         CLEAR     54  48  82 S10       29.94S
$$
MNZ078>079-086>088-094>096-201400-
   Southeast Minnesota

CITY           SKY/WX    TMP DP  RH WIND       PRES   REMARKS
ROCHESTER      CLEAR     53  49  86 S13       29.99S
RED WING       CLEAR     55  48  76 SE7       29.94S
STANTON        CLEAR     56  49  77 S8        29.91S
DODGE CENTER   CLEAR     54  48  82 S16       29.96S
WINONA         CLEAR     55  50  82 SE5       30.00R
AUSTIN         CLEAR     52  48  87 S7        29.98S
PRESTON        CLEAR     52  48  86 S13G20    30.01S
$$
ABBREVIATIONS USED IN REMARKS
   TC - TEMPERATURES IN CELSIUS
  WCI - WIND CHILL INDEX
   HX - HEAT INDEX
  VSB - VISIBILITY
$$




USA.gov is the U.S. government's official web portal to all federal, state and local government web resources and services.